COSMOS 1275 DEB, 42168

Orbit data source: Space-Track

COSMOS 1275 DEB, 42168 is space debris in LEO originally from a launch on Thu, 04 Jun 1981 UTC launched from the Plesetsk Missile And Space Complex (PKMTR). Debris objects in space refer to the collection of defunct objects orbiting the Earth. Examples of debris include non-operational satellites, rocket bodies, and fragments generated from explosions, collisions, or faulty payload assembly.

Loading next visibility...
Identifier
42168, 1981-053SG
Orbit
LEO
Last TLE update
10 months ago
Origin
Manufacturer
Unknown
Mission
Spacecraft
Bus & Motor
Unknown
Mass
Unknown
Launch date (UTC)
1981-06-04 (44 years ago)
Launch vehicle
Unknown
Launch site
Plesetsk Missile And Space Complex (PKMTR)
Object type
Payload
Rocket body
Debris
Shape & HBR
Unknown
Radar Cross Section
Small (<0.1 m²)

Expand to show TLE details & history

TLE from 10 months ago
0 COSMOS 1275 DEB
1 42168U 81053SG  24244.18236854  .00069334  00000-0  11748-1 0  9998
2 42168  82.7880  45.7953 0008919 236.3536 123.6822 14.68857209567332
Epoch: 2024-08-31T04:22Z
TLE epoch observation values (Epoch: 2024-08-31T04:22:36.641Z)
Latitude
-0°
Longitude
0.29794°
Altitude
671.233 km
Speed
7.519 km/s
True Right ascension
03h 03m 10s
True Declination
0° 00' 00"
Sunlit
Object was in daylight at epoch
Visualization orbit readout
Latitude
41.82505°
Longitude
79.88466°
Altitude
387.645 km
Speed
7.682 km/s
Apparent Right ascension
08h 58m 33s
Apparent Declination
2° 26' 37"
Sunlit
Object is in daylight
Visualization observer readout
Local Sidereal Time
21:36:43
Azimuth
13.987° NNE
Elevation
-46.746°
Doppler factor
1
Orbital elements
Apogee altitude
668.024 km
Perigee altitude
655.466 km
Semi-major axis
7,039.882 km
Eccentricity
0.00089
Inclination
82.788°
RAAN
45.7953°
Arg. of periapsis
236.3536°
True anomaly
Unknown
Mean anomaly
123.6822°
Eccentric anomaly
Unknown
Mean motion
3.67447 °/min
Orbital period
97.97 mins
BSTAR
0.011748
Loading maneuver chart data...
Loading SW <> Apogee altitude chart data...
Loading historical data...
Loading historical data...
Loading historical data...
Loading historical data...
Loading historical data...
Loading historical data...
Loading historical data...

COSMOS 1275 DEB Visibility forecast

Observer location: undefined°, undefined°

Span
Click to sort rows by Start time (UTC) header in descending order
Start Az.
Max El. time (UTC)
Max El. Az.
Max El.
End time (UTC)
End Az.
5 mins2025-07-11 20:02:01.828Z193.268° SSW2025-07-11 20:05:01.828Z324.687° NNW41.645°2025-07-11 20:07:01.828Z0.848° NNE
4 mins2025-07-12 07:15:01.828Z333.879° NNW2025-07-12 07:16:01.828Z291.063° WNW40.32°2025-07-12 07:19:01.828Z184.884° SSW
|